{"data":{"norad_id":67042,"epoch":"2026-09-20T18:25:56.457120Z","epoch_age_seconds":58543,"freshness":"FRESH","line1":"1 67042U 25294N   26263.76801455  .00010645  00000+0  39565-3 0  9992","line2":"2 67042  43.0031  16.4004 0001313 276.0886  83.9816 15.27592833 44639","mean_motion":15.27592833,"eccentricity":0.0001313,"inclination_deg":43.0031,"raan_deg":16.4004,"arg_perigee_deg":276.0886,"mean_anomaly_deg":83.9816,"bstar":0.00039565,"rev_number":4463,"period_min":94.265956797665,"perigee_km":482.10980100099,"apogee_km":483.91153837905,"semimajor_km":6861.14766969,"source":"CELESTRAK","updated_at":"2026-09-21T09:00:36.093462Z"}}